Regional Weather Roundup
Issued by NWS

Home | Current Version | Previous Version | Text Only | Print | Product List | Glossary On
Versions: 1 2 3 4 5 6 7 8 9 10 11 12 13 14 15 16 17 18 19 20 21 22 23 24 25 26 27
000
ASUS46 KPQR 220510
RWROR

OREGON REGIONAL WEATHER ROUNDUP
NATIONAL WEATHER SERVICE PORTLAND OR
900 PM PST SUN JAN 21 2018

NOTE: "FAIR" INDICATES FEW OR NO CLOUDS BELOW 12,000 FEET WITH
NO SIGNIFICANT WEATHER AND/OR OBSTRUCTIONS TO VISIBILITY.

ORZ001>013-220600-
NORTHWEST OREGON


CITY           SKY/WX    TMP DP  RH WIND       PRES   REMARKS
ASTORIA        CLOUDY    47  41  80 S8        30.02R
TILLAMOOK      MOCLDY    43  41  93 CALM      30.09R
NEWPORT        CLOUDY    45  43  93 S6          N/A
PORTLAND       MOCLDY    44  40  85 SE7       30.09R
VANCOUVER WA   MOCLDY    45  41  86 E7        30.08R
SCAPPOOSE      CLOUDY    43  41  93 SE6       30.07R
HILLSBORO      PTCLDY    42  40  92 S7        30.07R
AURORA         CLOUDY    46  40  79 S7        30.09R
MCMINNVILLE    CLOUDY    43  41  93 E3        30.08R
SALEM          MOCLDY    42  39  89 S6        30.08R
CORVALLIS      CLOUDY    43  42  97 S6        30.11R
EUGENE         CLOUDY    39  39 100 S5        30.12R
$$

ORZ021-028-220600-
SOUTHWEST OREGON


CITY           SKY/WX    TMP DP  RH WIND       PRES   REMARKS
NORTH BEND     PTCLDY    43  43 100 S8          N/A
BROOKINGS      LGT RAIN  45  44  97 CALM      30.17R
ROSEBURG       LGT RAIN  44  43  96 SE3       30.13R
SEXTON SUMMIT  CLOUDY    32  31  96 NW6       30.05R FOG
GRANTS PASS    CLOUDY    43  43 100 CALM      30.16R FOG
MEDFORD        LGT RAIN  44  40  85 VRB6      30.10R
$$

ORZ014>016-041-220600-
COLUMBIA GORGE


CITY           SKY/WX    TMP DP  RH WIND       PRES   REMARKS
TROUTDALE      CLOUDY    43  42  97 CALM      30.09R
HOOD RIVER     CLOUDY    37  36  93 CALM      30.07R
THE DALLES     MOCLDY    38  35  89 E6        30.07R
$$

ORZ029>031-041-044-049-050-061>064-502-503-505>511-220600-
EASTERN OREGON


CITY           SKY/WX    TMP DP  RH WIND       PRES   REMARKS
MADRAS         CLOUDY   N/A N/A N/A S9        30.05R
REDMOND        CLOUDY    34  32  92 SE3       30.03R
BEND           CLOUDY    37  32  81 W3        30.03R
PRINEVILLE     CLOUDY    36  34  93 NE5       30.03F
KLAMATH FALLS  CLOUDY    35  27  72 S13       30.07F WCI  26
LAKEVIEW       CLOUDY    30  27  88 S13       30.11S WCI  20
HERMISTON      MOCLDY    39  36  89 CALM      30.05R
PENDLETON      MOCLDY    42  34  73 SW8       30.03R
JOHN DAY       FLURRIES  38  31  78 SW7       30.05R
MEACHAM        LGT SNOW  32  29  88 CALM      30.03R FOG
LA GRANDE      CLOUDY    37  30  75 S16       30.08S WCI  28
BAKER CITY     FLURRIES  35  30  82 E13       30.09F WCI  26
BURNS          CLOUDY    31  30  96 VRB3      30.09R
ROME             N/A     32  29  88 VRB3      30.13R
ONTARIO        LGT RAIN  38  35  89 SE8       30.20S
$$




USA.gov is the U.S. government's official web portal to all federal, state and local government web resources and services.